[[{"header":{"parameterUnit":"m.s-1","parameterCategory":1,"la1":30.2991,"la2":30.254,"lo1":-89.0895,"lo2":-89.0444,"dy":0.0017,"dx":0.0017,"nx":28,"ny":28,"refTime":"2024-02-06T03:00:00:Z","depth":0,"parameterNumber":2,"parameterNumberName":"U-component_of_WINDS"},"data":[0,0,0,0,0,0,0,0,0,0,0,0,0,0,0,0,0,0,0,0,0,0,0,0,0,0,0,0,0,0,0,0,0,0,0,0,0,0,0,0,0,0,0,0,0,0,0,0,0,0,0,0,0,0,0,0,0,0,-4.649,-4.6492,0,-4.6603,-4.6604,-4.6606,-4.6546,-4.6543,-4.654,-4.6537,-4.6652,-4.6658,-4.6664,0,0,0,0,0,0,0,0,0,0,0,0,0,-4.6224,-4.623,-4.649,-4.6492,-4.6493,-4.6603,-4.6604,-4.6606,-4.6546,-4.6543,-4.6539,-4.6535,-4.665,-4.6657,-4.6664,0,0,0,0,0,0,0,0,0,0,0,0,0,-4.6339,-4.6231,-4.649,-4.6477,-4.6476,-4.6603,-4.6605,-4.6606,-4.6547,-4.6543,-4.6538,-4.6534,-4.6648,-4.6656,-4.6665,-4.6811,0,0,-4.6692,-4.6696,0,0,0,0,0,0,0,0,-4.6332,-4.6349,-4.6477,-4.6478,-4.6478,-4.6556,-4.6553,-4.6675,-4.6548,-4.652,-4.6537,-4.6532,-4.6624,-4.6634,-4.6665,-4.6816,-4.6821,-4.6693,-4.6698,-4.6702,-4.6705,0,0,0,0,0,0,0,-4.6325,-4.6344,-4.6535,-4.6479,-4.648,-4.6465,-4.6477,-4.6576,-4.6596,-4.6522,-4.6518,-4.6533,-4.6623,-4.6657,-4.6668,-4.6823,-4.6693,-4.6701,-4.6706,-4.671,-4.71,-4.7104,0,0,0,0,0,0,-4.6317,-4.6337,-4.6531,-4.6538,-4.6392,-4.6474,-4.6486,-4.6535,-4.6595,-4.66,-4.6536,-4.6529,-4.6644,-4.6657,-4.6671,-4.6845,-4.6702,-4.671,-4.6715,-4.7095,-4.7101,-4.7106,0,0,0,0,0,0,-4.6312,-4.6335,-4.6527,-4.6437,-4.646,-4.6483,-4.6539,-4.654,-4.6574,-4.6605,-4.6609,-4.6567,-4.6641,-4.6659,-4.6777,-4.6848,-4.6714,-4.6722,-4.7089,-4.7097,-4.7104,-4.7194,0,0,0,0,0,0,-4.6305,-4.6334,-4.6389,-4.6438,-4.6465,-4.663,-4.6543,-4.6545,-4.6589,-4.6581,-4.6635,-4.664,-4.6639,-4.6764,-4.6786,-4.6858,-4.6729,-4.7082,-4.7092,-4.7101,-4.7185,-4.7204,-4.722,0,0,0,0,0,-4.6295,-4.641,-4.6392,-4.6415,-4.6534,-4.6634,-4.6649,-4.6646,-4.6595,-4.6651,-4.6672,-4.6638,-4.6838,-4.6776,-4.68,-4.6877,-4.7078,-4.7089,-4.71,-4.7177,-4.72,-4.722,0,0,0,0,0,0,-4.6367,-4.6416,-4.6396,-4.653,-4.6579,-4.6624,-4.6693,-4.6671,-4.6734,-4.6724,-4.6717,-4.673,-4.6852,-4.6877,-4.6807,-4.7021,-4.695,-4.6967,-4.7,-4.7022,-4.704,-4.703,-4.6737,0,0,0,0,0,-4.6398,-4.6475,-4.6514,-4.6628,-4.6654,-4.667,-4.6713,-4.6707,-4.6756,-4.6776,-4.6806,-4.6855,-4.6929,-4.6978,-4.7047,-4.719,-4.72,-4.7254,-4.7272,-4.7286,-4.73,-4.7376,-4.74,-4.7144,-4.7144,-4.7143,0,0,-4.6464,-4.65,-4.6549,-4.6644,-4.668,-4.676,-4.6687,-4.6774,-4.6833,-4.679,-4.6902,-4.6926,-4.6981,-4.7111,-4.717,-4.7135,-4.7374,-4.7301,-4.7312,-4.7318,-4.7391,-4.7415,-4.7436,-4.7151,-4.715,-4.7149,0,0,-4.6623,-4.6659,-4.6758,-4.6796,-4.6853,-4.6864,-4.6888,-4.6938,-4.6952,-4.7065,-4.7034,-4.7105,-4.7232,-4.7272,-4.731,-4.7488,-4.7459,-4.7511,-4.7602,-4.7677,-4.7698,-4.7715,-4.7777,-4.78,-4.7525,-4.7526,-4.7526,0,-4.6696,-4.6815,-4.6811,-4.6901,-4.6944,-4.691,-4.701,-4.7048,-4.7125,-4.7155,-4.7116,-4.7276,-4.731,-4.745,-4.7493,-4.7526,-4.7552,-4.7503,-4.7695,-4.7713,-4.7729,-4.7788,-4.7812,-4.7531,-4.7531,-4.753,-4.753,0,-4.6902,-4.6985,-4.7059,-4.7134,-4.7185,-4.728,-4.7291,-4.7344,-4.7335,-4.735,-4.7466,-4.7507,-4.7585,-4.7618,-4.7609,-4.7757,-4.7733,-4.7695,-4.7623,-4.776,-4.7815,-4.7838,-4.754,-4.7538,-4.7536,-4.7535,0,0,-4.7105,-4.718,-4.7206,-4.724,-4.7302,-4.7366,-4.7461,-4.7537,-4.7582,-4.7638,-4.7715,-4.7826,-4.7791,-4.7834,-4.783,-4.7896,-4.8033,-4.7849,-4.7851,-4.788,-4.8197,-4.8223,-4.8249,-4.8016,-4.8021,-4.8024,-4.8192,0,-4.7267,-4.743,-4.7431,-4.7582,-4.7659,-4.7629,-4.7711,-4.7758,-4.7776,-4.7844,-4.7864,-4.7941,-4.789,-4.7916,-4.798,-4.8003,-4.8096,-4.7991,-4.8088,-4.8091,-4.8071,-4.8279,-4.8306,-4.8462,-4.8213,-4.8217,-4.822,0,-4.7476,-4.7538,-4.7697,-4.7748,-4.778,-4.7854,-4.7924,-4.799,-4.8044,-4.8052,-4.8101,-4.8088,-4.8184,-4.8113,-4.8245,-4.8173,-4.8214,-4.8231,-4.8237,-4.8243,-4.8161,-4.8288,-4.8512,-4.8534,-4.8254,-4.8251,-4.8249,0,-4.7605,-4.773,-4.784,-4.7871,-4.7934,-4.7987,-4.8016,-4.8065,-4.8111,-4.8174,-4.8204,-4.8277,-4.8316,-4.8374,-4.8381,-4.8328,-4.8514,-4.8442,-4.8522,-4.8522,-4.8559,-4.8556,-4.879,-4.8591,-4.8591,-4.859,-4.859,0,-4.7783,-4.7881,-4.7899,-4.7967,-4.8076,-4.8078,-4.8186,-4.8211,-4.8255,-4.8327,-4.8308,-4.8376,-4.8383,-4.8454,-4.8461,-4.8569,-4.8588,-4.8596,-4.8596,-4.8596,-4.8595,-4.862,-4.8608,-4.8596,-4.8595,-4.8594,-4.8593,0,-4.7945,-4.7961,-4.808,-4.8131,-4.8146,-4.8224,-4.8268,-4.8333,-4.8351,-4.8443,-4.8464,-4.8491,-4.8574,-4.8588,-4.8685,-4.8689,-4.8818,-4.8809,-4.88,-4.8797,-4.8876,-4.8867,-4.9131,-4.9165,-4.8947,-4.8949,-4.895,0,-4.8055,-4.813,-4.819,-4.8237,-4.8269,-4.8345,-4.8393,-4.8399,-4.8449,-4.8517,-4.8574,-4.8655,-4.8719,-4.8853,-4.8881,-4.8955,-4.8946,-4.9034,-4.8956,-4.8954,-4.8944,-4.8938,-4.8945,-4.9047,-4.9049,-4.9051,-4.9053,0,-4.825,-4.8255,-4.8324,-4.8397,-4.8454,-4.8512,-4.8566,-4.8606,-4.8619,-4.8677,-4.8762,-4.8812,-4.8912,-4.8992,-4.9067,-4.9097,-4.9077,-4.9078,-4.9099,-4.9098,-4.9089,-4.9093,-4.8837,-4.907,-4.9069,-4.9067,-4.9066,-4.9066,-4.8387,-4.8452,-4.8504,-4.8582,-4.8625,-4.8677,-4.874,-4.8766,-4.8837,-4.8918,-4.8918,-4.9011,-4.9064,-4.9163,-4.9198,-4.9271,-4.9242,-4.9275,-4.9282,-4.929,-4.9296,-4.9081,-4.9285,-4.9284,-4.9284,-4.9284,-4.9283,0,-4.8578,-4.8611,-4.8683,-4.8761,-4.8822,-4.8801,-4.886,-4.8913,-4.8995,-4.9047,-4.9111,-4.9209,-4.9287,-4.9323,-4.94,-4.9452,-4.9445,-4.9472,-4.9466,-4.9473,-4.9318,-4.929,-4.9476,-4.9476,-4.9476,-4.9476,-4.9476,-4.9476,-4.8684,-4.8793,-4.8805,-4.8934,-4.8967,-4.9057,-4.9093,-4.9141,-4.9182,-4.9292,-4.9357,-4.9381,-4.9426,-4.9507,-4.9579,-4.9587,-4.9615,-4.9646,-4.965,-4.9504,-4.9484,-4.9465,-4.9439,-4.9653,-4.9653,-4.9799,-4.9801,-4.9802]},{"header":{"parameterUnit":"m.s-1","parameterCategory":1,"la1":30.2991,"la2":30.254,"lo1":-89.0895,"lo2":-89.0444,"dy":0.0017,"dx":0.0017,"nx":28,"ny":28,"refTime":"2024-02-06T03:00:00:Z","depth":0,"parameterNumber":3,"parameterNumberName":"V-component_of_WINDS"},"data":[0,0,0,0,0,0,0,0,0,0,0,0,0,0,0,0,0,0,0,0,0,0,0,0,0,0,0,0,0,0,0,0,0,0,0,0,0,0,0,0,0,0,0,0,0,0,0,0,0,0,0,0,0,0,0,0,0,0,2.0567,2.0568,0,2.0645,2.0646,2.0647,2.0688,2.0688,2.0688,2.0688,2.0763,2.0765,2.0767,0,0,0,0,0,0,0,0,0,0,0,0,0,2.045,2.0452,2.0567,2.0568,2.0569,2.0645,2.0646,2.0647,2.0688,2.0688,2.0688,2.0688,2.0762,2.0764,2.0767,0,0,0,0,0,0,0,0,0,0,0,0,0,2.0511,2.0453,2.0567,2.0599,2.0602,2.0644,2.0646,2.0647,2.0688,2.0688,2.0688,2.0688,2.0761,2.0764,2.0767,2.0782,0,0,2.0776,2.0777,0,0,0,0,0,0,0,0,2.0508,2.0516,2.0593,2.0596,2.0601,2.0657,2.0632,2.0692,2.0688,2.0655,2.0688,2.0688,2.0727,2.0733,2.0747,2.0786,2.0789,2.0776,2.0778,2.0779,2.078,0,0,0,0,0,0,0,2.0504,2.0513,2.0598,2.0594,2.0599,2.0608,2.0617,2.0644,2.0689,2.0658,2.0661,2.067,2.0729,2.0744,2.0749,2.079,2.0776,2.0779,2.078,2.0781,2.0846,2.0846,0,0,0,0,0,0,2.0495,2.0509,2.0595,2.06,2.0554,2.061,2.062,2.0639,2.0689,2.0697,2.067,2.0672,2.0739,2.0746,2.0752,2.0774,2.0779,2.0782,2.0783,2.0846,2.0846,2.0846,0,0,0,0,0,0,2.0492,2.0502,2.0592,2.0555,2.0567,2.0612,2.0632,2.064,2.0655,2.0698,2.0706,2.0677,2.074,2.0748,2.0775,2.0777,2.0783,2.0786,2.0846,2.0846,2.0846,2.0818,0,0,0,0,0,0,2.0489,2.0501,2.0508,2.0555,2.0569,2.0615,2.0633,2.0641,2.066,2.0664,2.0707,2.0714,2.074,2.0771,2.0778,2.0781,2.0788,2.0846,2.0846,2.0846,2.0819,2.0817,2.0815,0,0,0,0,0,2.0484,2.0495,2.0508,2.0518,2.0579,2.0615,2.0623,2.0654,2.066,2.0667,2.0695,2.0713,2.0776,2.0773,2.0782,2.0786,2.0846,2.0846,2.0846,2.0819,2.0817,2.0815,0,0,0,0,0,0,2.0445,2.0502,2.0517,2.0543,2.0574,2.0622,2.0631,2.065,2.0678,2.068,2.0716,2.0725,2.0749,2.077,2.0766,2.0804,2.0813,2.0815,2.0789,2.0787,2.0786,2.078,2.079,0,0,0,0,0,2.0439,2.0465,2.0513,2.0532,2.0547,2.0586,2.0603,2.0625,2.0657,2.067,2.07,2.073,2.0756,2.0773,2.08,2.0822,2.0832,2.0829,2.0827,2.0825,2.0826,2.0841,2.084,2.0846,2.0846,2.0846,0,0,2.0428,2.0462,2.0476,2.0525,2.0551,2.0576,2.0597,2.0622,2.0641,2.0673,2.0702,2.0725,2.076,2.0785,2.0798,2.0803,2.0827,2.0826,2.0824,2.0826,2.0841,2.084,2.084,2.0846,2.0846,2.0846,0,0,2.042,2.0449,2.0468,2.0495,2.0536,2.0562,2.0567,2.0612,2.063,2.0659,2.0685,2.0707,2.0751,2.0776,2.0795,2.0798,2.0816,2.0806,2.0796,2.081,2.081,2.0809,2.0811,2.0811,2.0807,2.0807,2.0807,0,2.04,2.044,2.0475,2.05,2.0521,2.0554,2.0574,2.0598,2.0644,2.0657,2.0663,2.0722,2.0748,2.078,2.0781,2.0795,2.0801,2.0801,2.0807,2.0807,2.0807,2.081,2.081,2.0805,2.0805,2.0806,2.0806,0,2.0414,2.0442,2.0453,2.0499,2.0521,2.0543,2.0581,2.0599,2.0619,2.0645,2.0675,2.0707,2.0742,2.0751,2.077,2.0786,2.0789,2.08,2.081,2.0805,2.0808,2.0809,2.0803,2.0804,2.0804,2.0805,0,0,2.0383,2.045,2.0454,2.0476,2.0524,2.0545,2.0569,2.0605,2.062,2.0651,2.0671,2.071,2.0722,2.0742,2.0764,2.0776,2.0778,2.0787,2.0788,2.0784,2.0799,2.079,2.0791,2.079,2.079,2.0791,2.0796,0,2.0382,2.0428,2.0461,2.0494,2.052,2.0552,2.0573,2.0604,2.0629,2.0654,2.068,2.0708,2.0721,2.0734,2.0747,2.0775,2.0782,2.0775,2.0809,2.081,2.08,2.0792,2.0783,2.0786,2.0798,2.0798,2.0798,0,2.0388,2.042,2.0456,2.0503,2.0515,2.0533,2.057,2.0594,2.063,2.0647,2.0671,2.0695,2.072,2.0728,2.0764,2.0759,2.0774,2.079,2.0791,2.0796,2.0804,2.0797,2.0788,2.0789,2.08,2.08,2.0799,0,2.0362,2.0415,2.0444,2.0461,2.0517,2.0529,2.0552,2.0589,2.0609,2.064,2.0654,2.0686,2.0704,2.0729,2.076,2.0763,2.0793,2.0803,2.0808,2.0807,2.0813,2.0812,2.0807,2.0822,2.0822,2.0822,2.0822,0,2.0358,2.0379,2.0433,2.0451,2.0475,2.0513,2.0535,2.0561,2.0593,2.0616,2.0645,2.0666,2.0706,2.0731,2.0755,2.0781,2.0789,2.0803,2.0809,2.0801,2.0799,2.0812,2.0812,2.0822,2.0822,2.0822,2.0822,0,2.0333,2.0371,2.0404,2.0455,2.0468,2.0484,2.0527,2.0545,2.0572,2.06,2.0609,2.0651,2.0682,2.0716,2.0757,2.0774,2.0799,2.0808,2.0787,2.0791,2.0794,2.0794,2.0797,2.08,2.0812,2.0812,2.0812,0,2.0329,2.0346,2.0399,2.0418,2.0441,2.047,2.0491,2.0529,2.055,2.0593,2.0606,2.064,2.0669,2.0717,2.075,2.0782,2.0792,2.0792,2.0797,2.0789,2.0793,2.0792,2.0794,2.079,2.0789,2.0789,2.0789,0,2.0317,2.0335,2.0366,2.0404,2.0429,2.046,2.0492,2.0504,2.0548,2.057,2.0604,2.0626,2.0671,2.0704,2.074,2.0763,2.0783,2.0787,2.079,2.0781,2.0769,2.0777,2.0783,2.0787,2.0787,2.0787,2.0787,2.0787,2.0303,2.032,2.0361,2.0395,2.0423,2.0453,2.0473,2.0504,2.0533,2.0573,2.0593,2.0626,2.0663,2.0715,2.0737,2.0763,2.0769,2.0773,2.0774,2.0775,2.0773,2.0765,2.077,2.077,2.077,2.077,2.077,0,2.0293,2.0322,2.0352,2.0397,2.0424,2.0443,2.0479,2.05,2.053,2.0563,2.0592,2.063,2.0663,2.07,2.0735,2.0748,2.0758,2.0756,2.0755,2.0761,2.0765,2.0759,2.0747,2.0747,2.0747,2.0747,2.0747,2.0747,2.0291,2.0322,2.0345,2.0391,2.0419,2.0454,2.0473,2.05,2.0527,2.057,2.0598,2.0623,2.0657,2.0695,2.0726,2.0736,2.0747,2.0742,2.0755,2.0758,2.076,2.0762,2.0757,2.0745,2.0745,2.0749,2.0749,2.0749]}]]